Time,TemperatureF,DewpointF,PressureIn,WindDirection,WindDirectionDegrees,WindSpeedMPH,WindSpeedGustMPH,Humidity,HourlyPrecipIn,Conditions,Clouds,dailyrainin,SoftwareType,DateUTC
2013-01-19 00:04:00,26.0,7.0,30.21,WNW,291,0.0,0.0,43,0.00,,,0.00,,2013-01-19 05:04:00,
2013-01-19 00:12:00,26.0,7.0,30.21,WNW,291,0.0,0.0,43,0.00,,,0.00,,2013-01-19 05:12:00,
2013-01-19 00:23:00,27.0,7.0,30.21,South,180,0.0,0.0,42,0.00,,,0.00,,2013-01-19 05:23:00,
2013-01-19 00:33:00,27.0,6.0,30.21,SW,225,0.0,0.0,41,0.00,,,0.00,,2013-01-19 05:33:00,
2013-01-19 00:43:00,27.0,6.0,30.21,SW,225,0.0,0.0,41,0.00,,,0.00,,2013-01-19 05:43:00,
2013-01-19 00:52:00,28.0,7.0,30.21,SW,222,0.0,3.0,41,0.00,,,0.00,,2013-01-19 05:52:00,
2013-01-19 01:03:00,28.0,7.0,30.20,West,259,0.0,2.0,40,0.00,,,0.00,,2013-01-19 06:03:00,
2013-01-19 01:12:00,28.0,7.0,30.20,West,259,0.0,2.0,40,0.00,,,0.00,,2013-01-19 06:12:00,
2013-01-19 01:22:00,28.0,7.0,30.20,SW,225,0.0,0.0,40,0.00,,,0.00,,2013-01-19 06:22:00,
2013-01-19 01:33:00,29.0,8.0,30.20,SW,225,1.0,7.0,40,0.00,,,0.00,,2013-01-19 06:33:00,
2013-01-19 01:43:00,29.0,8.0,30.20,SW,225,1.0,7.0,40,0.00,,,0.00,,2013-01-19 06:43:00,
2013-01-19 01:52:00,29.0,7.0,30.20,SSW,213,1.0,6.0,38,0.00,,,0.00,,2013-01-19 06:52:00,
2013-01-19 02:02:00,29.0,7.0,30.20,SW,225,0.0,6.0,38,0.00,,,0.00,,2013-01-19 07:02:00,
2013-01-19 02:12:00,29.0,7.0,30.20,SW,225,0.0,6.0,38,0.00,,,0.00,,2013-01-19 07:12:00,
2013-01-19 02:22:00,29.0,6.0,30.20,SSW,202,0.0,0.0,37,0.00,,,0.00,,2013-01-19 07:22:00,
2013-01-19 02:33:00,30.0,6.0,30.20,SW,236,2.0,9.0,36,0.00,,,0.00,,2013-01-19 07:33:00,
2013-01-19 02:43:00,30.0,6.0,30.20,SW,236,2.0,9.0,36,0.00,,,0.00,,2013-01-19 07:43:00,
2013-01-19 02:52:00,30.0,6.0,30.20,SW,236,2.0,8.0,36,0.00,,,0.00,,2013-01-19 07:52:00,
2013-01-19 03:02:00,30.0,6.0,30.19,SW,219,1.0,7.0,36,0.00,,,0.00,,2013-01-19 08:02:00,
2013-01-19 03:12:00,30.0,6.0,30.19,SW,219,1.0,7.0,36,0.00,,,0.00,,2013-01-19 08:12:00,
2013-01-19 03:22:00,30.0,7.0,30.19,WSW,248,0.0,6.0,37,0.00,,,0.00,,2013-01-19 08:22:00,
2013-01-19 03:32:00,30.0,7.0,30.19,South,188,0.0,7.0,37,0.00,,,0.00,,2013-01-19 08:32:00,
2013-01-19 03:43:00,30.0,7.0,30.19,South,188,0.0,7.0,37,0.00,,,0.00,,2013-01-19 08:43:00,
2013-01-19 03:52:00,30.0,6.0,30.18,West,270,0.0,2.0,36,0.00,,,0.00,,2013-01-19 08:52:00,
2013-01-19 04:02:00,31.0,7.0,30.18,WSW,248,0.0,0.0,36,0.00,,,0.00,,2013-01-19 09:02:00,
2013-01-19 04:12:00,31.0,7.0,30.18,WSW,248,0.0,0.0,36,0.00,,,0.00,,2013-01-19 09:12:00,
2013-01-19 04:23:00,31.0,8.0,30.17,WSW,248,0.0,0.0,37,0.00,,,0.00,,2013-01-19 09:23:00,
2013-01-19 04:33:00,31.0,8.0,30.17,SE,135,0.0,0.0,37,0.00,,,0.00,,2013-01-19 09:33:00,
2013-01-19 04:42:00,31.0,8.0,30.17,SE,135,0.0,0.0,37,0.00,,,0.00,,2013-01-19 09:42:00,
2013-01-19 04:52:00,31.0,8.0,30.17,SW,228,1.0,6.0,37,0.00,,,0.00,,2013-01-19 09:52:00,
2013-01-19 05:02:00,31.0,8.0,30.17,SW,225,0.0,2.0,37,0.00,,,0.00,,2013-01-19 10:02:00,
2013-01-19 05:12:00,31.0,8.0,30.17,SW,225,0.0,2.0,37,0.00,,,0.00,,2013-01-19 10:12:00,
2013-01-19 05:22:00,31.0,7.0,30.17,SW,225,0.0,0.0,36,0.00,,,0.00,,2013-01-19 10:22:00,
2013-01-19 05:32:00,31.0,8.0,30.17,SW,225,0.0,0.0,37,0.00,,,0.00,,2013-01-19 10:32:00,
2013-01-19 05:43:00,31.0,8.0,30.17,SW,225,0.0,0.0,37,0.00,,,0.00,,2013-01-19 10:43:00,
2013-01-19 05:52:00,32.0,9.0,30.17,SSW,202,2.0,8.0,37,0.00,,,0.00,,2013-01-19 10:52:00,
2013-01-19 06:03:00,32.0,9.0,30.16,SSW,203,2.0,9.0,37,0.00,,,0.00,,2013-01-19 11:03:00,
2013-01-19 06:12:00,32.0,9.0,30.16,SSW,203,2.0,9.0,37,0.00,,,0.00,,2013-01-19 11:12:00,
2013-01-19 07:48:00,33.0,10.0,30.16,SSW,209,9.0,13.0,37,0.00,,,0.00,,2013-01-19 12:48:00,
2013-01-19 08:03:00,35.0,10.0,30.17,SW,229,6.0,10.0,35,0.00,,,0.00,,2013-01-19 13:03:00,
2013-01-19 08:13:00,35.0,10.0,30.17,SW,229,6.0,10.0,35,0.00,,,0.00,,2013-01-19 13:13:00,
2013-01-19 08:22:00,35.0,10.0,30.16,SSW,209,7.0,14.0,35,0.00,,,0.00,,2013-01-19 13:22:00,
2013-01-19 08:33:00,35.0,10.0,30.17,SW,224,8.0,16.0,35,0.00,,,0.00,,2013-01-19 13:33:00,
2013-01-19 08:43:00,35.0,10.0,30.17,SW,224,8.0,16.0,35,0.00,,,0.00,,2013-01-19 13:43:00,
2013-01-19 08:53:00,36.0,11.0,30.17,SW,235,7.0,12.0,35,0.00,,,0.00,,2013-01-19 13:53:00,
2013-01-19 09:03:00,36.0,11.0,30.17,SW,228,6.0,14.0,35,0.00,,,0.00,,2013-01-19 14:03:00,
2013-01-19 09:12:00,36.0,11.0,30.17,SW,228,6.0,14.0,35,0.00,,,0.00,,2013-01-19 14:12:00,
2013-01-19 09:23:00,37.0,12.0,30.18,SSW,208,12.0,18.0,35,0.00,,,0.00,,2013-01-19 14:23:00,
2013-01-19 09:34:00,37.0,11.0,30.17,SW,221,9.0,17.0,34,0.00,,,0.00,,2013-01-19 14:34:00,
2013-01-19 09:43:00,37.0,11.0,30.17,SW,221,9.0,17.0,34,0.00,,,0.00,,2013-01-19 14:43:00,
2013-01-19 09:53:00,38.0,11.0,30.17,SW,231,7.0,14.0,32,0.00,,,0.00,,2013-01-19 14:53:00,
2013-01-19 10:03:00,38.0,10.0,30.17,SW,224,8.0,16.0,31,0.00,,,0.00,,2013-01-19 15:03:00,
2013-01-19 10:13:00,38.0,10.0,30.17,SW,224,8.0,16.0,31,0.00,,,0.00,,2013-01-19 15:13:00,
2013-01-19 10:23:00,38.0,10.0,30.16,SSW,208,12.0,20.0,31,0.00,,,0.00,,2013-01-19 15:23:00,
2013-01-19 10:33:00,39.0,10.0,30.16,SSW,210,10.0,17.0,30,0.00,,,0.00,,2013-01-19 15:33:00,
2013-01-19 10:43:00,39.0,10.0,30.16,SSW,210,10.0,17.0,30,0.00,,,0.00,,2013-01-19 15:43:00,
2013-01-19 10:53:00,40.0,10.0,30.15,SW,218,12.0,17.0,29,0.00,,,0.00,,2013-01-19 15:53:00,
2013-01-19 11:03:00,41.0,10.0,30.15,SW,216,10.0,20.0,27,0.00,,,0.00,,2013-01-19 16:03:00,
2013-01-19 11:13:00,41.0,10.0,30.15,SW,216,10.0,20.0,27,0.00,,,0.00,,2013-01-19 16:13:00,
2013-01-19 11:23:00,42.0,3.0,30.14,SW,214,6.0,22.0,19,0.00,,,0.00,,2013-01-19 16:23:00,
2013-01-19 11:33:00,42.0,3.0,30.13,South,191,12.0,20.0,19,0.00,,,0.00,,2013-01-19 16:33:00,
2013-01-19 11:43:00,42.0,3.0,30.13,South,191,12.0,20.0,19,0.00,,,0.00,,2013-01-19 16:43:00,
2013-01-19 11:53:00,43.0,4.0,30.12,SW,214,9.0,21.0,19,0.00,,,0.00,,2013-01-19 16:53:00,
2013-01-19 12:03:00,44.0,4.0,30.11,SW,216,16.0,24.0,19,0.00,,,0.00,,2013-01-19 17:03:00,
2013-01-19 12:21:00,44.0,4.0,30.11,SW,216,16.0,24.0,19,0.00,,,0.00,,2013-01-19 17:21:00,
2013-01-19 12:29:00,44.0,4.0,30.10,SSW,207,5.0,18.0,19,0.00,,,0.00,,2013-01-19 17:29:00,
2013-01-19 12:35:00,45.0,5.0,30.09,SW,225,10.0,16.0,19,0.00,,,0.00,,2013-01-19 17:35:00,
2013-01-19 12:48:00,45.0,5.0,30.09,SW,225,10.0,16.0,19,0.00,,,0.00,,2013-01-19 17:48:00,
2013-01-19 13:12:00,46.0,6.0,30.07,SSW,213,8.0,14.0,19,0.00,,,0.00,,2013-01-19 18:12:00,
2013-01-19 13:27:00,46.0,6.0,30.06,SW,222,14.0,22.0,19,0.00,,,0.00,,2013-01-19 18:27:00,
2013-01-19 13:35:00,47.0,7.0,30.04,SW,214,9.0,14.0,19,0.00,,,0.00,,2013-01-19 18:35:00,
2013-01-19 13:55:00,47.0,7.0,30.04,SW,218,5.0,13.0,19,0.00,,,0.00,,2013-01-19 18:55:00,
2013-01-19 14:09:00,48.0,8.0,30.03,SW,221,9.0,13.0,19,0.00,,,0.00,,2013-01-19 19:09:00,
2013-01-19 14:20:00,48.0,8.0,30.03,SW,221,9.0,13.0,19,0.00,,,0.00,,2013-01-19 19:20:00,
2013-01-19 14:30:00,48.0,8.0,30.02,SW,218,7.0,14.0,19,0.02,,,0.02,,2013-01-19 19:30:00,
2013-01-19 14:39:00,49.0,9.0,30.02,SW,225,12.0,16.0,19,0.02,,,0.02,,2013-01-19 19:39:00,
2013-01-19 14:47:00,49.0,9.0,30.02,SW,225,12.0,16.0,19,0.02,,,0.02,,2013-01-19 19:47:00,
2013-01-19 14:54:00,49.0,9.0,30.01,SW,227,7.0,15.0,19,0.02,,,0.02,,2013-01-19 19:54:00,
2013-01-19 15:10:00,49.0,9.0,30.00,West,274,7.0,13.0,19,0.02,,,0.02,,2013-01-19 20:10:00,
2013-01-19 15:20:00,49.0,9.0,30.00,West,274,7.0,13.0,19,0.02,,,0.02,,2013-01-19 20:20:00,
2013-01-19 15:25:00,49.0,16.0,29.99,SW,230,8.0,17.0,26,0.00,,,0.02,,2013-01-19 20:25:00,
2013-01-19 15:38:00,49.0,16.0,29.99,WSW,241,7.0,13.0,26,0.00,,,0.02,,2013-01-19 20:38:00,
2013-01-19 15:49:00,49.0,16.0,29.99,WSW,241,7.0,13.0,26,0.00,,,0.02,,2013-01-19 20:49:00,
2013-01-19 15:54:00,49.0,15.0,29.98,SW,220,9.0,17.0,25,0.00,,,0.02,,2013-01-19 20:54:00,
2013-01-19 16:07:00,49.0,14.0,29.97,SW,224,6.0,17.0,24,0.00,,,0.02,,2013-01-19 21:07:00,
2013-01-19 16:15:00,49.0,14.0,29.97,SW,224,6.0,17.0,24,0.00,,,0.02,,2013-01-19 21:15:00,
2013-01-19 16:26:00,49.0,14.0,29.96,SSW,210,5.0,12.0,24,0.00,,,0.02,,2013-01-19 21:26:00,
2013-01-19 16:51:00,49.0,13.0,29.96,SW,225,6.0,10.0,23,0.00,,,0.02,,2013-01-19 21:51:00,
2013-01-19 17:01:00,49.0,12.0,29.96,SW,222,5.0,14.0,22,0.00,,,0.02,,2013-01-19 22:01:00,
2013-01-19 17:15:00,49.0,9.0,29.95,SW,224,6.0,10.0,19,0.00,,,0.02,,2013-01-19 22:15:00,
2013-01-19 17:27:00,48.0,8.0,29.95,SSW,208,6.0,10.0,19,0.00,,,0.02,,2013-01-19 22:27:00,
2013-01-19 17:35:00,47.0,7.0,29.95,SW,225,3.0,10.0,19,0.00,,,0.02,,2013-01-19 22:35:00,
2013-01-19 17:48:00,47.0,7.0,29.95,SW,225,3.0,10.0,19,0.00,,,0.02,,2013-01-19 22:48:00,
2013-01-19 18:13:00,45.0,5.0,29.94,South,180,2.0,10.0,19,0.00,,,0.02,,2013-01-19 23:13:00,
2013-01-19 18:25:00,45.0,5.0,29.94,SSW,194,4.0,8.0,19,0.00,,,0.02,,2013-01-19 23:25:00,
2013-01-19 18:34:00,44.0,4.0,29.93,SW,225,2.0,8.0,19,0.00,,,0.02,,2013-01-19 23:34:00,
2013-01-19 18:59:00,44.0,4.0,29.93,SW,225,2.0,3.0,19,0.00,,,0.02,,2013-01-19 23:59:00,
2013-01-19 19:09:00,43.0,4.0,29.93,SW,225,0.0,5.0,19,0.00,,,0.02,,2013-01-20 00:09:00,
2013-01-19 19:15:00,43.0,4.0,29.93,SW,225,0.0,5.0,19,0.00,,,0.02,,2013-01-20 00:15:00,
2013-01-19 19:25:00,42.0,3.0,29.93,SW,225,0.0,2.0,19,0.00,,,0.02,,2013-01-20 00:25:00,
2013-01-19 19:35:00,42.0,3.0,29.93,SW,225,0.0,5.0,19,0.00,,,0.02,,2013-01-20 00:35:00,
2013-01-19 19:46:00,42.0,3.0,29.93,SW,225,0.0,5.0,19,0.00,,,0.02,,2013-01-20 00:46:00,
2013-01-19 19:54:00,42.0,3.0,29.92,SSW,202,0.0,7.0,19,0.00,,,0.02,,2013-01-20 00:54:00,
2013-01-19 20:04:00,41.0,2.0,29.92,SW,225,3.0,13.0,19,0.00,,,0.02,,2013-01-20 01:04:00,
2013-01-19 20:21:00,41.0,2.0,29.92,SW,225,3.0,13.0,19,0.00,,,0.02,,2013-01-20 01:21:00,
2013-01-19 20:37:00,41.0,2.0,29.91,SSW,204,2.0,12.0,19,0.00,,,0.02,,2013-01-20 01:37:00,
2013-01-19 20:49:00,41.0,2.0,29.91,SSW,204,2.0,12.0,19,0.00,,,0.02,,2013-01-20 01:49:00,
2013-01-19 20:58:00,41.0,2.0,29.90,SSW,205,2.0,8.0,19,0.00,,,0.02,,2013-01-20 01:58:00,
2013-01-19 21:08:00,40.0,1.0,29.90,SSW,202,5.0,12.0,19,0.00,,,0.02,,2013-01-20 02:08:00,
2013-01-19 21:15:00,40.0,1.0,29.90,SSW,202,5.0,12.0,19,0.00,,,0.02,,2013-01-20 02:15:00,
2013-01-19 21:26:00,41.0,2.0,29.89,SW,218,6.0,14.0,19,0.00,,,0.02,,2013-01-20 02:26:00,
2013-01-19 21:36:00,41.0,2.0,29.89,SW,216,7.0,10.0,19,0.00,,,0.02,,2013-01-20 02:36:00,
2013-01-19 21:45:00,41.0,2.0,29.89,SW,216,7.0,10.0,19,0.00,,,0.02,,2013-01-20 02:45:00,
2013-01-19 21:55:00,42.0,3.0,29.87,SW,215,5.0,13.0,19,0.00,,,0.02,,2013-01-20 02:55:00,
2013-01-19 22:08:00,42.0,3.0,29.88,SSW,205,7.0,14.0,19,0.00,,,0.02,,2013-01-20 03:08:00,
2013-01-19 22:15:00,42.0,3.0,29.88,SSW,205,7.0,14.0,19,0.00,,,0.02,,2013-01-20 03:15:00,
2013-01-19 22:25:00,42.0,3.0,29.87,SSW,201,5.0,15.0,19,0.00,,,0.02,,2013-01-20 03:25:00,
2013-01-19 22:38:00,42.0,3.0,29.86,SW,217,7.0,14.0,19,0.00,,,0.02,,2013-01-20 03:38:00,
2013-01-19 22:45:00,42.0,3.0,29.86,SW,217,7.0,14.0,19,0.00,,,0.02,,2013-01-20 03:45:00,
2013-01-19 22:54:00,42.0,3.0,29.86,SW,222,6.0,15.0,19,0.00,,,0.02,,2013-01-20 03:54:00,
2013-01-19 23:05:00,43.0,4.0,29.85,SSW,212,9.0,15.0,19,0.00,,,0.02,,2013-01-20 04:05:00,
2013-01-19 23:15:00,43.0,4.0,29.85,SSW,212,9.0,15.0,19,0.00,,,0.02,,2013-01-20 04:15:00,
2013-01-19 23:25:00,43.0,4.0,29.86,SW,225,5.0,15.0,19,0.00,,,0.02,,2013-01-20 04:25:00,
2013-01-19 23:36:00,43.0,4.0,29.86,SW,225,7.0,18.0,19,0.00,,,0.02,,2013-01-20 04:36:00,
2013-01-19 23:45:00,43.0,4.0,29.86,SW,225,7.0,18.0,19,0.00,,,0.02,,2013-01-20 04:45:00,
2013-01-19 23:54:00,43.0,4.0,29.85,SSW,201,6.0,16.0,19,0.00,,,0.02,,2013-01-20 04:54:00,